OBJECT B, 60746

Orbit data source: Space-Track

You're viewing an Uncataloged Satellite

Recently launched and/or uncataloged satellites may have evolving metadata. Metadata may include but not limited to: Owner, Maufacturer, Bus, Motor, and Mission.

OBJECT B, 60746 is a satellite owned by Yunyao yuhang (CN) in SSO that was launched on Thu, 29 Aug 2024 UTC via a GUSHENXING 1 launch vehicle from the Yellow Sea Launch Area, China (YSLA). Unknown objects in Earth's orbit typically refer to objects detected orbiting the Earth but have not yet been identified or cataloged. These objects could be anything from previously untracked satellites, spent rocket stages, debris from satellite collisions, or even natural meteoroids temporarily captured by Earth's gravity.

Loading next visibility...
Identifier
60746, 2024-153B
Orbit
SSO
Last TLE update
5 hours ago
Origin
Flag of CNYYAO (CN / PRC)
Manufacturer
Changguang WJ
Mission
Operational Commercial Weather
Bus & Motor
YY-1, Unknown motor
Mass
~50 kg wet, ~50 kg dry
Launch date (UTC)
2024-08-29 (10 months ago)
Launch vehicle
GUSHENXING 1
Launch site
Yellow Sea Launch Area, China (YSLA)
Object type
Unknown
Shape & HBR
Box + 1 Pan, 5 m
Radar Cross Section
5.339 m², Medium (>0.1 m² and < 1m²)

Expand to show TLE details & history

TLE from 5 hours ago
0 OBJECT B
1 60746U 24153B   25182.18652785  .00007798  00000-0  34581-3 0  9993
2 60746  97.6411 307.3137 0011497 316.8090  43.2243 15.21828530 46379
Epoch: 2025-07-01T04:28Z
TLE epoch observation values (Epoch: 2025-07-01T04:28:36.006Z)
Latitude
0.00001°
Longitude
-39.32192°
Altitude
497.652 km
Speed
7.619 km/s
True Right ascension
20h 29m 15s
True Declination
0° 00' 00"
Sunlit
Object was in full shadow at epoch
Visualization orbit readout
Latitude
30.01321°
Longitude
-43.53624°
Altitude
502.036 km
Speed
7.617 km/s
Apparent Right ascension
17h 31m 19s
Apparent Declination
-23° 01' 19"
Sunlit
Object is in full shadow
Visualization observer readout
Local Sidereal Time
20:58:50
Azimuth
227.453° WSW
Elevation
10.652°
Doppler factor
1
Orbital elements
Apogee altitude
505.204 km
Perigee altitude
489.394 km
Semi-major axis
6,875.436 km
Eccentricity
0.00115
Inclination
97.6411°
RAAN
307.3137°
Arg. of periapsis
316.809°
True anomaly
Unknown
Mean anomaly
43.2243°
Eccentric anomaly
Unknown
Mean motion
3.80709 °/min
Orbital period
94.56 mins
BSTAR
0.00034581
Loading maneuver chart data...
Loading SW <> Apogee altitude chart data...
Loading historical data...
Loading historical data...
Loading historical data...
Loading historical data...
Loading historical data...
Loading historical data...
Loading historical data...

OBJECT B Visibility forecast

Observer location: undefined°, undefined°

Span
Click to sort rows by Start time (UTC) header in descending order
Start Az.
Max El. time (UTC)
Max El. Az.
Max El.
End time (UTC)
End Az.
4 mins2025-07-01 09:20:33.898Z227.181° WSW2025-07-01 09:22:33.898Z261.314° W15.598°2025-07-01 09:24:33.898Z298.52° NW
5 mins2025-07-01 20:50:33.898Z42.815° NE2025-07-01 20:52:33.898Z106.658° ESE32.663°2025-07-01 20:55:33.898Z168.049° S
4 mins2025-07-02 09:01:33.898Z222.114° SW2025-07-02 09:03:33.898Z276.271° WNW24.646°2025-07-02 09:05:33.898Z316.579° NNW
|